Location: Oshawa
(43.9000°N, 78.8670°W)
Time: 11:35:09
(UTC-05:00)

SPOT 5 - Visible Passes

Search period start: 22 February 2018 00:00
Search period end: 04 March 2018 00:00
Orbit: 624 x 814 km, 98.4° (Epoch: 22 February)

Date Brightness Start Highest point End Pass type
(mag) Time Alt. Az. Time Alt. Az. Time Alt. Az.
22 Feb 5.5 20:55:30 12° N 20:55:30 12° N 20:55:55 10° N visible
23 Feb 5.8 21:43:57 12° NNW 21:43:57 12° NNW 21:44:18 10° NNW visible
24 Feb 5.4 20:53:10 13° N 20:53:10 13° N 20:53:51 10° N visible
25 Feb 5.6 21:41:37 14° NNW 21:41:37 14° NNW 21:42:16 10° NNW visible
26 Feb 5.3 20:50:50 15° N 20:50:50 15° N 20:51:47 10° N visible
27 Feb 5.5 21:39:17 15° N 21:39:17 15° N 21:40:14 10° NNW visible
28 Feb 5.2 20:48:31 16° NNE 20:48:31 16° NNE 20:49:43 10° N visible
28 Feb 6.0 22:27:44 11° NNW 22:27:44 11° NNW 22:27:57 10° NNW visible
01 Mar 5.3 19:57:44 10° NNE 19:57:44 10° NNE 19:57:49 10° NNE visible
01 Mar 5.4 21:36:58 17° N 21:36:58 17° N 21:38:12 10° N visible
02 Mar 5.1 20:46:11 17° NNE 20:46:11 17° NNE 20:47:39 10° N visible
02 Mar 5.9 22:25:25 13° NNW 22:25:25 13° NNW 22:25:57 10° NNW visible
03 Mar 5.3 19:55:25 10° NE 19:55:25 10° NE 19:55:37 10° NE visible
03 Mar 5.2 21:34:39 19° N 21:34:39 19° N 21:36:10 10° N visible
